This is the latest recevied weather packets stored in our database for station/object W8BS. If no packets are shown the sender has not sent any weather packets the latest 10 day(s).
| Time | Temp. | Humidity | Pressure | Rain* | Wind** | Luminosity | Snow |
|---|---|---|---|---|---|---|---|
| 1777227529 | 14.44° C | 77% | 1017 hPa | 0 mm | - | 796 W/m² | - |
| 1777227224 | 14.44° C | 76% | 1017 hPa | 0 mm | - | 355 W/m² | - |
| 1777226921 | 14.44° C | 80% | 1017 hPa | 0 mm | - | 411 W/m² | - |
| 1777226619 | 14.44° C | 78% | 1016.9 hPa | 0 mm | - | 468 W/m² | - |
| 1777226316 | 13.89° C | 79% | 1016.9 hPa | 0 mm | - | 978 W/m² | - |
| 1777226012 | 14.44° C | 79% | 1017 hPa | 0 mm | - | 430 W/m² | - |
| 1777225707 | 13.33° C | 82% | 1017.2 hPa | 0 mm | - | 615 W/m² | - |
| 1777225405 | 12.78° C | 82% | 1017.2 hPa | 0 mm | - | 362 W/m² | - |
| 1777225102 | 12.78° C | 81% | 1017.1 hPa | 0 mm | - | 466 W/m² | - |
| 1777224798 | 12.78° C | 84% | 1016.9 hPa | 0 mm | - | 401 W/m² | - |
| 1777224494 | 12.78° C | 85% | 1017.3 hPa | 0 mm | - | 368 W/m² | - |
| 1777224190 | 12.22° C | 85% | 1017.2 hPa | 0 mm | - | 359 W/m² | - |
| 1777223887 | 12.22° C | 86% | 1017.2 hPa | 0 mm | - | 328 W/m² | - |
| 1777223583 | 12.22° C | 86% | 1017.5 hPa | 0 mm | - | 387 W/m² | - |
| 1777223280 | 11.67° C | 87% | 1017.4 hPa | 0 mm | - | 482 W/m² | - |
| 1777222978 | 11.67° C | 87% | 1017.4 hPa | 0 mm | - | 252 W/m² | - |
| 1777222675 | 11.67° C | 87% | 1017.5 hPa | 0 mm | - | 291 W/m² | - |
| 1777222372 | 12.22° C | 88% | 1017.5 hPa | 0 mm | - | 270 W/m² | - |
| 1777222070 | 12.22° C | 87% | 1017.5 hPa | 0 mm | - | 184 W/m² | - |
| 1777221766 | 12.22° C | 88% | 1017.3 hPa | 0 mm | - | 272 W/m² | - |
| 1777221462 | 12.22° C | 88% | 1017.6 hPa | 0 mm | - | 323 W/m² | - |
| 1777221160 | 11.67° C | 90% | 1017.5 hPa | 0 mm | - | 427 W/m² | - |
| 1777220856 | 11.11° C | 92% | 1017.7 hPa | 0 mm | - | 315 W/m² | - |
| 1777220552 | 10.56° C | 93% | 1017.6 hPa | 0 mm | - | 321 W/m² | - |
| 1777220247 | 10.56° C | 95% | 1017.6 hPa | 0 mm | - | 265 W/m² | - |
* Rain latest hour (hover to see other rain measurements)
** Current wind speed in m/s (hover to see current wind gust speed)